Volver al catálogo

COSMOS 2491 DEB

ActivoPO
NORAD 57558·DEBRIS·🇷🇺 Russia

Lanzado Dec 25, 2013 desde Plesetsk Cosmodrome

Loading…

Próximos Pases (próximas 24 horas)

TLE

ObsoletoSource: Space-Track

Época: Nov 9, 2024, 20:55 UTC

1 57558U 13076AV  24314.87204794  .00002733  00000-0  18418-1 0  9990
2 57558  82.4833 167.8215 0050904 312.9305  46.7512 12.47564132 68555

Sigue COSMOS 2491 DEB en tiempo real con AllMySat

Download on the App Store